User: anonymous   Login
Location: Antichan
(42.9728°N, 0.6667°E)
Time: 12:28:25
(UTC+00:00)
Language:

SJ-6B - Orbit

View from above orbital plane
View from above orbital plane
View from above satellite
View from above satellite

Ground track
Ground track

The orbit data is extracted from the following two-line orbital elements,

1 28415U 04035C   20293.87575594 +.00000425 +00000-0 +32035-4 0  9996
2 28415 097.6002 334.0010 0050049 288.7757 070.8044 15.06923731882377
Epoch (UTC): 19 October 2020 21:01:05
Eccentricity: 0.0050049
inclination: 97.6002°
perigee height: 511 km
apogee height: 580 km
right ascension of ascending node: 334.0010°
argument of perigee: 288.7757°
revolutions per day: 15.06923731
mean anomaly at epoch: 70.8044°
orbit number at epoch: 88237

The dashed part of the orbit path shows where the satellite is in the earth's shadow,  

DLR